Regional Weather Roundup
Issued by NWS Charleston, WV

Home | Current Version | Previous Version | Graphics & Text | Print | Product List | Glossary On
Versions: 1 2 3 4 5 6 7 8 9 10 11 12 13 14 15 16 17 18 19 20 21 22 23 24 25 26 27
000
ASUS41 KRLX 191410
RWRRLX
West Virginia Regional Weather Roundup
National Weather Service Charleston WV
1000 AM EDT TUE SEP 19 2017

Note: "fair" indicates few or no clouds below 12,000 feet with no
significant weather and/or obstructions to visibility.

WVZ003-191500-
Northern Panhandle of West Virginia

CITY           SKY/WX    TMP DP  RH WIND       PRES   REMARKS
WHEELING       SUNNY     70  63  78 SE6       30.05R
$$

WVZ009-191500-
Northwest West Virginia

CITY           SKY/WX    TMP DP  RH WIND       PRES   REMARKS
PARKERSBURG    MOSUNNY   67  66  97 CALM      30.05R FOG
$$

WVZ006-191500-
Western West Virginia

CITY           SKY/WX    TMP DP  RH WIND       PRES   REMARKS
HUNTINGTON     CLOUDY    70  65  84 CALM      30.02S
$$

WVZ015-191500-
West Central West Virginia

CITY           SKY/WX    TMP DP  RH WIND       PRES   REMARKS
CHARLESTON     MOSUNNY   66  64  93 CALM      30.03S
$$

WVZ022-031-191500-
North Central West Virginia

CITY           SKY/WX    TMP DP  RH WIND       PRES   REMARKS
CLARKSBURG     SUNNY     69  62  78 E5        30.05S
MORGANTOWN     SUNNY     70  61  73 VRB3      30.07R
$$

WVZ025-035-042-045-191500-
Southern West Virginia

CITY           SKY/WX    TMP DP  RH WIND       PRES   REMARKS
BECKLEY        SUNNY     69  62  78 S3        30.10R
LOGAN          PTSUNNY   70  64  83 CALM      30.06R
BLUEFIELD      SUNNY     68  59  73 CALM      30.13R
LEWISBURG      CLOUDY    62  62  98 N3        30.11S
$$

WVZ047-191500-
Northern Mountains of West Virginia

CITY           SKY/WX    TMP DP  RH WIND       PRES   REMARKS
ELKINS         CLOUDY    60  58  92 W3        30.11S FOG
$$

WVZ052-191500-
Eastern Panhandle of West Virginia

CITY           SKY/WX    TMP DP  RH WIND       PRES   REMARKS
MARTINSBURG    CLOUDY    70  63  78 NE7       30.05S
PETERSBURG     CLOUDY    70  66  86 CALM      30.07F FOG
$$




USA.gov is the U.S. government's official web portal to all federal, state and local government web resources and services.